Wahpeton, MN

1:39 PM CST on December 14, 2019 (GMT -0600)
Stern

Weather History for KBWP - November, 2019

Change the Weather History Date:

Thursday, November 21, 2019

  Actual Average (WUND) Record (WUND)
Temperature  
Mean Temperature 24 °F -  
Max Temperature 32 °F - - (-1)
Min Temperature 17 °F - - (-1)
Degree Days  
Heating Degree Days 40    
Moisture  
Dew Point 17 °F    
Average Humidity 82    
Maximum Humidity 100    
Minimum Humidity 74    
Precipitation  
Precipitation 0.00 in - - ()
Sea Level Pressure  
Sea Level Pressure 30.12 in    
Wind  
Wind Speed 17 mph ()    
Max Wind Speed 28 mph    
Max Gust Speed 38 mph    
Visibility 8.5 miles    
Events      
Averages and records for this station are not official NWS values.
T = Trace of Precipitation, MM = Missing Value Source: Averaged Metar Reports

Daily Weather History Graph

Daily Weather History Graph

Search for Another Location

Airport or City:

Astronomy

Nov. 21, 2019 Rise Set
Actual Time 7:35 AM CST 4:48 PM CST
Civil Twilight 7:02 AM CST 5:21 PM CST
Nautical Twilight 6:25 AM CST 5:58 PM CST
Astronomical Twilight 5:49 AM CST 6:34 PM CST
Moon 1:07 AM CST (11/21) 2:41 PM CST (11/21)
Length of Visible Light 10h 19m
Length of Day
9h 12m
Waning Crescent, 29% of the Moon is Illuminated
Nov 21
Waning Crescent
Nov 26
New
Dec 4
First Quarter
Dec 11
Full
Dec 18
Last Quarter

Hourly Weather History & Observations

Time (CST) Temp. Windchill Dew Point Humidity Pressure Visibility Wind Dir Wind Speed Gust Speed Precip Events Conditions
12:15 AM 32.0 °F 20.8 °F 32.0 °F 100% 29.87 in 5.0 mi North 17.3 mph 23.0 mph N/A   Overcast
12:35 AM 32.0 °F 21.2 °F 32.0 °F 100% 29.88 in 2.5 mi North 16.1 mph 26.5 mph N/A   Overcast
1:15 AM 32.0 °F 20.1 °F 32.0 °F 100% 29.89 in 3.0 mi North 19.6 mph 25.3 mph N/A   Overcast
1:35 AM 32.0 °F 19.8 °F 32.0 °F 100% 29.90 in 4.0 mi North 20.7 mph 27.6 mph N/A   Overcast
1:55 AM 32.0 °F 19.5 °F 30.2 °F 93% 29.91 in 4.0 mi NNW 21.9 mph 29.9 mph N/A   Overcast
2:15 AM 32.0 °F 19.8 °F 30.2 °F 93% 29.91 in 1.8 mi NNW 20.7 mph 31.1 mph N/A   Overcast
2:35 AM 30.2 °F 16.8 °F 28.4 °F 93% 29.93 in 3.0 mi NNW 23.0 mph 31.1 mph N/A   Overcast
2:55 AM 30.2 °F 17.4 °F 28.4 °F 93% 29.94 in 2.5 mi NNW 20.7 mph 27.6 mph N/A   Overcast
3:15 AM 28.4 °F 15.4 °F 28.4 °F 100% 29.94 in 3.0 mi NNW 19.6 mph 28.8 mph N/A   Overcast
3:35 AM 28.4 °F 13.3 °F 26.6 °F 93% 29.95 in 3.0 mi NNW 27.6 mph 33.4 mph N/A   Overcast
3:55 AM 28.4 °F 15.1 °F 26.6 °F 93% 29.96 in 7.0 mi NNW 20.7 mph 32.2 mph N/A   Overcast
4:15 AM 26.6 °F 11.1 °F 24.8 °F 93% 29.97 in 10.0 mi North 26.5 mph 33.4 mph N/A   Overcast
4:35 AM 26.6 °F 12.7 °F 23.0 °F 86% 29.97 in 10.0 mi North 20.7 mph 34.5 mph N/A   Overcast
4:55 AM 24.8 °F 9.3 °F 21.2 °F 86% 29.98 in 10.0 mi NNW 24.2 mph 34.5 mph N/A   Overcast
5:35 AM 23.0 °F 6.6 °F 19.4 °F 86% 30.00 in 10.0 mi NNW 25.3 mph 29.9 mph N/A   Overcast
5:55 AM 23.0 °F 6.0 °F 19.4 °F 86% 30.01 in 10.0 mi NNW 27.6 mph 38.0 mph N/A   Overcast
6:15 AM 23.0 °F 6.0 °F 19.4 °F 86% 30.03 in 10.0 mi NNW 27.6 mph 33.4 mph N/A   Overcast
6:35 AM 23.0 °F 8.7 °F 17.6 °F 80% 30.04 in 10.0 mi NNW 18.4 mph 32.2 mph N/A   Overcast
6:55 AM 21.2 °F 4.9 °F 17.6 °F 86% 30.06 in 10.0 mi NNW 23.0 mph 32.2 mph N/A   Overcast
7:15 AM 21.2 °F 3.9 °F 15.8 °F 80% 30.07 in 10.0 mi NNW 26.5 mph 32.2 mph N/A   Overcast
7:35 AM 21.2 °F 4.5 °F 15.8 °F 80% 30.08 in 10.0 mi NNW 24.2 mph 33.4 mph N/A   Overcast
7:55 AM 21.2 °F 6.4 °F 17.6 °F 86% 30.10 in 10.0 mi NNW 18.4 mph 28.8 mph N/A   Overcast
8:15 AM 19.4 °F 2.1 °F 15.8 °F 86% 30.11 in 10.0 mi NNW 24.2 mph 28.8 mph N/A   Overcast
8:35 AM 19.4 °F 4.5 °F 14.0 °F 80% 30.12 in 10.0 mi NNW 17.3 mph 32.2 mph N/A   Overcast
8:55 AM 21.2 °F 6.0 °F 14.0 °F 74% 30.12 in 10.0 mi NNW 19.6 mph 33.4 mph N/A   Overcast
9:15 AM 19.4 °F 4.1 °F 14.0 °F 80% 30.13 in 4.0 mi North 18.4 mph 26.5 mph N/A   Overcast
9:35 AM 19.4 °F 3.2 °F 14.0 °F 80% 30.14 in 10.0 mi NNW 20.7 mph 27.6 mph N/A   Overcast
9:55 AM 19.4 °F 2.8 °F 12.2 °F 74% 30.15 in 5.0 mi NNW 21.9 mph 29.9 mph N/A   Overcast
10:15 AM 19.4 °F 2.8 °F 12.2 °F 74% 30.15 in 7.0 mi NNW 21.9 mph 28.8 mph N/A   Overcast
10:35 AM 19.4 °F 2.1 °F 12.2 °F 74% 30.16 in 7.0 mi NNW 24.2 mph 29.9 mph N/A   Overcast
10:55 AM 19.4 °F 2.5 °F 12.2 °F 74% 30.16 in 5.0 mi North 23.0 mph 29.9 mph N/A   Overcast
11:15 AM 19.4 °F 2.5 °F 12.2 °F 74% 30.15 in 7.0 mi NNW 23.0 mph 32.2 mph N/A   Overcast
11:35 AM 21.2 °F 5.6 °F 14.0 °F 74% 30.15 in 7.0 mi NNW 20.7 mph 28.8 mph N/A   Overcast
11:55 AM 21.2 °F 6.8 °F 14.0 °F 74% 30.15 in 7.0 mi NNW 17.3 mph 26.5 mph N/A   Overcast
12:55 PM 21.2 °F 7.3 °F 14.0 °F 74% 30.14 in 10.0 mi NNW 16.1 mph 20.7 mph N/A   Overcast
1:15 PM 21.2 °F 8.3 °F 14.0 °F 74% 30.14 in 10.0 mi NNW 13.8 mph 19.6 mph N/A   Overcast
1:35 PM 21.2 °F 8.3 °F 14.0 °F 74% 30.15 in 10.0 mi NNW 13.8 mph 26.5 mph N/A   Overcast
1:55 PM 21.2 °F 6.8 °F 14.0 °F 74% 30.16 in 10.0 mi NNW 17.3 mph - N/A   Overcast
2:15 PM 21.2 °F 6.4 °F 14.0 °F 74% 30.16 in 10.0 mi NNW 18.4 mph 25.3 mph N/A   Overcast
2:35 PM 21.2 °F 6.0 °F 14.0 °F 74% 30.17 in 10.0 mi NNW 19.6 mph 24.2 mph N/A   Overcast
2:55 PM 21.2 °F 7.8 °F 14.0 °F 74% 30.18 in 10.0 mi NNW 15.0 mph 20.7 mph N/A   Overcast
3:15 PM 21.2 °F 7.8 °F 14.0 °F 74% 30.19 in 10.0 mi NNW 15.0 mph 20.7 mph N/A   Overcast
3:35 PM 19.4 °F 4.5 °F 14.0 °F 80% 30.20 in 10.0 mi NNW 17.3 mph 23.0 mph N/A   Overcast
3:55 PM 19.4 °F 5.0 °F 14.0 °F 80% 30.20 in 10.0 mi NNW 16.1 mph 20.7 mph N/A   Overcast
4:15 PM 19.4 °F 5.5 °F 14.0 °F 80% 30.20 in 10.0 mi NNW 15.0 mph 19.6 mph N/A   Overcast
4:35 PM 19.4 °F 5.0 °F 12.2 °F 74% 30.21 in 10.0 mi NNW 16.1 mph 23.0 mph N/A   Overcast
4:55 PM 19.4 °F 6.6 °F 12.2 °F 74% 30.22 in 10.0 mi NNW 12.7 mph - N/A   Overcast
5:15 PM 19.4 °F 6.0 °F 12.2 °F 74% 30.23 in 10.0 mi North 13.8 mph 18.4 mph N/A   Overcast
5:55 PM 17.6 °F 5.7 °F 12.2 °F 79% 30.23 in 10.0 mi North 10.4 mph - N/A   Overcast
6:15 PM 17.6 °F 4.3 °F 12.2 °F 79% 30.24 in 10.0 mi North 12.7 mph - N/A   Overcast
6:35 PM 17.6 °F 4.3 °F 12.2 °F 79% 30.24 in 10.0 mi North 12.7 mph 18.4 mph N/A   Overcast
6:55 PM 17.6 °F 5.7 °F 12.2 °F 79% 30.24 in 10.0 mi North 10.4 mph - N/A   Overcast
7:15 PM 17.6 °F 8.2 °F 12.2 °F 79% 30.25 in 10.0 mi North 6.9 mph - N/A   Overcast
7:35 PM 17.6 °F 10.7 °F 12.2 °F 79% 30.24 in 10.0 mi North 4.6 mph - N/A   Unknown
7:55 PM 17.6 °F 7.3 °F 12.2 °F 79% 30.25 in 10.0 mi North 8.1 mph - N/A   Unknown
8:15 PM 17.6 °F 9.3 °F 12.2 °F 79% 30.25 in 10.0 mi North 5.8 mph - N/A   Unknown
8:35 PM 19.4 °F 12.8 °F 12.2 °F 74% 30.25 in 10.0 mi NNW 4.6 mph - N/A   Unknown
9:15 PM 19.4 °F 12.8 °F 12.2 °F 74% 30.26 in 10.0 mi North 4.6 mph - N/A   Unknown
9:35 PM 19.4 °F 10.4 °F 12.2 °F 74% 30.26 in 10.0 mi NNW 6.9 mph - N/A   Unknown
9:55 PM 19.4 °F 10.4 °F 14.0 °F 80% 30.26 in 10.0 mi North 6.9 mph - N/A   Unknown
10:15 PM 19.4 °F 11.5 °F 14.0 °F 80% 30.26 in 10.0 mi NW 5.8 mph - N/A   Overcast
10:35 PM 19.4 °F 11.5 °F 14.0 °F 80% 30.27 in 10.0 mi NNW 5.8 mph - N/A   Unknown
10:55 PM 19.4 °F 12.8 °F 14.0 °F 80% 30.27 in 10.0 mi NW 4.6 mph - N/A   Unknown
11:15 PM 19.4 °F 10.4 °F 14.0 °F 80% 30.26 in 10.0 mi WNW 6.9 mph - N/A   Unknown
11:35 PM 19.4 °F 11.5 °F 14.0 °F 80% 30.27 in 10.0 mi NW 5.8 mph - N/A   Unknown
11:55 PM 17.6 °F 12.3 °F 14.0 °F 86% 30.27 in 10.0 mi West 3.5 mph - N/A   Unknown